User: anonymous
Location: Fort Wayne
(41.1310°N, 85.1290°W)
Time: 12:15:25
(UTC-04:00)
Language:

Cosmos 1000 Rocket - Orbit

View from above orbital plane
View from above orbital plane
View from above satellite
View from above satellite

Ground track
Ground track

The orbit data is extracted from the following two-line orbital elements,

1 10777U 78034B   14264.51934006  .00000133  00000-0  11837-3 0  3555
2 10777 082.9401 254.0566 0027662 117.2116 355.7378 13.77305173832770
Epoch (UTC): 21 September 2014 12:27:50
Eccentricity: 0.0027662
inclination: 82.9401°
perigee height: 953 km
apogee height: 994 km
right ascension of ascending node: 254.0566°
argument of perigee: 117.2116°
revolutions per day: 13.77305173
mean anomaly at epoch: 355.7378°
orbit number at epoch: 83277

The dashed part of the orbit path shows where the satellite is in the earth's shadow,  

DLR